STARLINK-2471 (48129 NORAD) Tracking and Keplerian Element Data

This shows tracking and keplerian element data for the satellite.

Feedback or suggestion? Click here.




ElementValue
Catalog48129
NameSTARLINK-2471
Epoch Orbit179
Epoch Day136.75001157
Epoch Year2021
RAAN146.6993
Inclination53.0461
Eccentricity9.77E-05
Argument of Perigee339.8739
Mean Anonmoly182.013
Mean Motion15.55065217
Decay Rate-0.01196897
L11 48129U 21027AP 21136.75001157 -.01196897 00000-0 -19490-1 0 9992
L22 48129 53.0461 146.6993 0000977 339.8739 182.0130 15.55065217 1797

Live tracking and technical data element details for STARLINK-2471 (NORAD 48129). STARLINK-2471 can be tracked NOW for your location showing map with azimuth and elevation plus other details from your city location.

Track the satellite on the map from your city or location and see movement details for azimuth, elevation, latitude, longitude, range, height, and movement on the map or in text.







IsCatalogInMostPopularTable: catalog: 48129, numindb: 15
Update: records affected: 1



GetName: 48129 STARLINK-2471

Hit Count: updated at: Mon, 17 May 2021 16:12:54 GMT